Date String (YYYY-MM-DD hh:mm:ss) UTC,Instrument flags,Ambient pressure (hPa),Sample flow (lpm),Bypass flow (lpm),Sample temperature (°C),Ambient temperature (°C),ASC tube jacket temperature (°C),LED temperature (°C),Box temperature (°C),Sample RH (%),Span deviation,Mass concentration (μg/m³),Mass concentration (μg/m³),Mass concentration (μg/m³)
DateTimeUTC,F1_M11,P_M11,Q1_M11,Q2_M11,T1_M11,T2_M11,T3_M11,T4_M11,T5_M11,U1_M11,ZSPAN_M11,X0_M11,X2_M11,X1_M11
2022-04-29 14:00:00,,0814.2,4.99,0.00,27.0,26.4,00.0,35.9,28.8,17.4,0000.7,0026.52,0008.68,0005.36
2022-04-29 14:01:00,,0814.1,5.01,0.00,27.0,26.4,00.0,35.9,28.8,17.6,0000.7,0030.06,0008.85,0005.42
2022-04-29 14:02:00,,0814.1,4.99,0.00,27.0,26.5,00.0,35.9,28.8,17.5,0001.1,0033.32,0008.97,0005.52
2022-04-29 14:03:00,,0814.1,5.00,0.00,27.0,26.5,00.0,35.9,28.8,17.6,0000.8,0035.34,0009.09,0005.57
2022-04-29 14:04:00,,0814.1,5.00,0.00,27.0,26.5,00.0,35.9,28.9,17.6,0000.2,0035.41,0009.09,0005.57
2022-04-29 14:05:00,,0814.1,4.99,0.00,27.0,26.5,00.0,35.9,28.9,17.6,0000.8,0039.31,0009.30,0005.57
2022-04-29 14:06:00,,0814.2,5.02,0.00,27.0,26.6,00.0,35.9,28.9,17.8,0002.0,0041.86,0009.38,0005.55
2022-04-29 14:07:00,,0814.1,5.00,0.00,27.1,26.6,00.0,35.9,28.9,17.5,0002.6,0043.27,0009.39,0005.55
2022-04-29 14:08:00,,0814.1,4.98,0.00,27.1,26.6,00.0,36.0,28.9,17.6,0002.6,0045.84,0009.49,0005.55
2022-04-29 14:09:00,,0814.1,5.02,0.00,27.1,26.6,00.0,36.0,29.0,16.8,0002.3,0047.03,0009.58,0005.55
2022-04-29 14:10:00,,0814.1,4.99,0.00,27.1,26.6,00.0,36.0,29.0,16.5,0003.0,0045.78,0009.55,0005.54
2022-04-29 14:11:00,,0814.1,5.00,0.00,27.1,26.6,00.0,36.0,29.0,16.3,0003.7,0045.84,0009.47,0005.52
2022-04-29 14:12:00,,0814.1,5.01,0.00,27.2,26.7,00.0,36.0,29.0,17.2,0004.3,0044.68,0009.40,0005.49
2022-04-29 14:13:00,,0814.1,4.99,0.00,27.2,26.7,00.0,36.0,29.1,16.9,0004.6,0042.42,0009.32,0005.47
2022-04-29 14:14:00,,0814.1,5.00,0.00,27.2,26.8,00.0,36.0,29.1,16.2,0004.3,0040.33,0009.23,0005.43
2022-04-29 14:15:00,,0814.2,5.01,0.00,27.2,26.8,00.0,36.1,29.1,16.1,0004.0,0040.62,0009.13,0005.39
2022-04-29 14:16:00,,0814.1,5.00,0.00,27.2,26.8,00.0,36.1,29.1,16.3,0001.0,0036.53,0008.87,0005.37
2022-04-29 14:17:00,,0814.1,5.00,0.00,27.2,26.8,00.0,36.1,29.1,16.2,0000.0,0035.83,0008.82,0005.35
2022-04-29 14:18:00,,0814.2,5.00,0.00,27.2,26.7,00.0,36.1,29.1,16.3,0000.0,0036.91,0008.80,0005.32
2022-04-29 14:19:00,,0814.1,4.99,0.00,27.2,26.7,00.0,36.1,29.0,16.7,0000.0,0037.43,0008.74,0005.30
2022-04-29 14:20:00,,0814.2,5.01,0.00,27.2,26.7,00.0,36.1,29.0,16.1,0000.0,0038.61,0008.72,0005.26
2022-04-29 14:21:00,,0814.2,4.99,0.00,27.2,26.7,00.0,36.1,29.0,15.7,0000.0,0040.77,0008.77,0005.23
2022-04-29 14:22:00,,0814.2,5.00,0.00,27.2,26.7,00.0,36.1,29.0,16.5,0000.0,0039.58,0008.66,0005.21
2022-04-29 14:23:00,,0814.2,5.01,0.00,27.2,26.7,00.0,36.1,29.1,16.6,0000.0,0037.52,0008.57,0005.21
2022-04-29 14:24:00,,0814.2,5.00,0.00,27.2,26.7,00.0,36.1,29.0,16.0,0000.0,0038.41,0008.54,0005.21
2022-04-29 14:25:00,,0814.2,4.99,0.00,27.2,26.7,00.0,36.1,29.1,13.7,0000.0,0039.19,0008.56,0005.20
2022-04-29 14:26:00,,0814.1,5.01,0.00,27.3,26.7,00.0,36.1,29.1,13.3,0000.0,0038.03,0008.57,0005.17
2022-04-29 14:27:00,,0814.2,4.99,0.00,27.3,26.8,00.0,36.2,29.1,13.0,0000.0,0036.93,0008.53,0005.12
2022-04-29 14:28:00,,0814.2,5.00,0.00,27.3,26.7,00.0,36.2,29.1,12.9,0000.0,0035.94,0008.45,0005.07
2022-04-29 14:29:00,,0814.1,5.00,0.00,27.3,26.7,00.0,36.2,29.2,10.8,0000.0,0033.99,0008.28,0005.00
2022-04-29 14:30:00,,0814.2,5.00,0.00,27.3,26.8,00.0,36.2,29.2,11.1,0000.0,0031.71,0008.17,0004.92
2022-04-29 14:31:00,,0814.2,5.00,0.00,27.3,26.8,00.0,36.2,29.2,11.5,0000.0,0029.12,0008.06,0004.87
2022-04-29 14:32:00,,0814.1,5.01,0.00,27.3,26.8,00.0,36.2,29.2,11.4,0000.0,0026.45,0007.88,0004.81
2022-04-29 14:33:00,,0814.1,5.00,0.00,27.3,26.8,00.0,36.2,29.2,10.5,0000.0,0025.42,0007.84,0004.75
2022-04-29 14:34:00,,0814.1,4.99,0.00,27.3,26.9,00.0,36.2,29.2,10.6,0000.0,0025.38,0007.89,0004.68
2022-04-29 14:35:00,,0814.1,5.02,0.00,27.4,26.9,00.0,36.2,29.2,10.6,0000.0,0023.95,0007.85,0004.60
2022-04-29 14:36:00,,0814.1,5.00,0.00,27.4,26.9,00.0,36.2,29.3,13.8,0000.0,0026.38,0007.94,0004.56
2022-04-29 14:37:00,,0814.2,4.98,0.00,27.4,27.0,00.0,36.3,29.3,14.4,-000.0,0031.78,0008.11,0004.55
2022-04-29 14:38:00,,0814.1,5.00,0.00,27.4,27.0,00.0,36.3,29.4,11.3,0000.2,0036.49,0008.20,0004.55
2022-04-29 14:39:00,,0814.2,4.99,0.00,27.5,27.0,00.0,36.3,29.4,08.0,0000.1,0037.26,0008.17,0004.50
2022-04-29 14:40:00,,0814.1,5.00,0.00,27.5,27.0,00.0,36.3,29.4,07.7,0000.4,0036.34,0008.11,0004.47
2022-04-29 14:41:00,,0814.1,5.00,0.00,27.5,27.0,00.0,36.3,29.4,07.8,0001.1,0036.81,0008.05,0004.46
2022-04-29 14:42:00,,0814.1,5.01,0.00,27.5,27.0,00.0,36.3,29.4,07.8,0000.7,0036.99,0008.09,0004.44
2022-04-29 14:43:00,,0814.2,5.00,0.00,27.5,27.1,00.0,36.3,29.4,08.1,0002.0,0037.87,0008.04,0004.41
2022-04-29 14:44:00,,0814.3,4.99,0.00,27.6,27.1,00.0,36.4,29.4,11.2,0002.9,0039.30,0008.19,0004.41
2022-04-29 14:45:00,,0814.2,5.01,0.00,27.6,27.1,00.0,36.4,29.4,11.6,0000.2,0046.96,0008.54,0004.44
2022-04-29 14:46:00,,0814.3,5.01,0.00,27.6,27.1,00.0,36.4,29.5,10.1,0000.0,0054.52,0008.89,0004.45
2022-04-29 14:47:00,,0814.4,4.99,0.00,27.6,27.1,00.0,36.4,29.5,08.2,0001.7,0053.41,0008.83,0004.42
2022-04-29 14:48:00,,0814.4,5.00,0.00,27.6,27.1,00.0,36.4,29.5,07.9,0002.8,0048.38,0008.58,0004.36
2022-04-29 14:49:00,,0814.3,5.00,0.00,27.6,27.0,00.0,36.4,29.4,07.1,0003.3,0043.47,0008.40,0004.30
2022-04-29 14:50:00,,0814.3,4.99,0.00,27.6,27.0,00.0,36.4,29.4,07.2,0002.7,0041.62,0008.34,0004.28
2022-04-29 14:51:00,,0814.2,5.01,0.00,27.6,26.9,00.0,36.5,29.4,06.8,0002.4,0042.54,0008.36,0004.27
2022-04-29 14:52:00,,0814.2,4.99,0.00,27.5,26.8,00.0,36.5,29.3,06.8,0002.5,0041.66,0008.38,0004.27
2022-04-29 14:53:00,,0814.1,5.00,0.00,27.5,26.8,00.0,36.5,29.3,07.0,0002.5,0041.68,0008.32,0004.26
2022-04-29 14:54:00,,0814.1,4.99,0.00,27.6,26.8,00.0,36.5,29.4,06.8,0001.9,0041.96,0008.38,0004.25
2022-04-29 14:55:00,,0814.3,5.00,0.00,27.6,26.9,00.0,36.5,29.4,06.5,0001.5,0041.06,0008.23,0004.21
2022-04-29 14:56:00,,0814.3,5.02,0.00,27.6,27.0,00.0,36.5,29.5,06.4,0001.7,0032.94,0007.85,0004.14
2022-04-29 14:57:00,,0814.4,4.98,0.00,27.6,27.0,00.0,36.5,29.5,06.4,0002.0,0024.93,0007.45,0004.09
2022-04-29 14:58:00,,0814.4,4.99,0.00,27.6,27.1,00.0,36.5,29.5,06.5,0002.2,0024.06,0007.32,0004.08
2022-04-29 14:59:00,,0814.3,5.01,0.00,27.7,27.1,00.0,36.5,29.5,06.8,0002.5,0023.08,0007.27,0004.09
